Date String (YYYY-MM-DD hh:mm:ss) UTC,Instrument flags,Ambient pressure (hPa),Sample flow (lpm),Bypass flow (lpm),Sample temperature (°C),Ambient temperature (°C),ASC tube jacket temperature (°C),LED temperature (°C),Box temperature (°C),Sample RH (%),Span deviation,Mass concentration (μg/m³),Mass concentration (μg/m³),Mass concentration (μg/m³)
DateTimeUTC,F1_M11,P_M11,Q1_M11,Q2_M11,T1_M11,T2_M11,T3_M11,T4_M11,T5_M11,U1_M11,ZSPAN_M11,X0_M11,X2_M11,X1_M11
2021-12-08 13:00:00,,0819.9,5.01,0.00,22.6,21.9,00.0,31.5,24.3,11.1,0000.0,0010.27,0003.60,0002.07
2021-12-08 13:01:00,,0819.9,5.01,0.00,22.6,21.9,00.0,31.5,24.2,11.1,0000.0,0010.78,0003.65,0002.09
2021-12-08 13:02:00,,0819.9,4.98,0.00,22.5,21.8,00.0,31.5,24.2,11.2,0000.0,0010.29,0003.65,0002.09
2021-12-08 13:03:00,,0819.9,5.01,0.00,22.5,21.8,00.0,31.5,24.2,11.2,0000.0,0009.97,0003.65,0002.09
2021-12-08 13:04:00,,0819.9,5.00,0.00,22.5,21.8,00.0,31.5,24.2,11.2,0000.0,0009.99,0003.63,0002.10
2021-12-08 13:05:00,,0819.9,5.01,0.00,22.5,21.8,00.0,31.5,24.2,11.3,0000.0,0009.85,0003.62,0002.11
2021-12-08 13:06:00,,0819.9,4.98,0.00,22.5,21.7,00.0,31.5,24.2,11.3,0000.0,0009.68,0003.57,0002.07
2021-12-08 13:07:00,,0819.9,5.00,0.00,22.4,21.6,00.0,31.5,24.1,11.3,0000.0,0010.53,0003.56,0001.99
2021-12-08 13:08:00,,0820.0,5.00,0.00,22.4,21.6,00.0,31.5,24.0,11.4,0000.0,0011.02,0003.55,0001.95
2021-12-08 13:09:00,,0820.0,5.00,0.00,22.3,21.5,00.0,31.5,24.0,11.4,0000.0,0010.78,0003.46,0001.91
2021-12-08 13:10:00,,0819.9,5.02,0.00,22.3,21.5,00.0,31.4,24.0,11.4,0000.0,0010.90,0003.42,0001.89
2021-12-08 13:11:00,,0819.9,4.99,0.00,22.3,21.5,00.0,31.4,24.0,11.4,0000.0,0010.30,0003.41,0001.87
2021-12-08 13:12:00,,0819.9,5.02,0.00,22.3,21.4,00.0,31.4,23.9,11.4,0000.0,0009.57,0003.37,0001.87
2021-12-08 13:13:00,,0820.0,4.99,0.00,22.2,21.4,00.0,31.4,23.8,11.5,0000.0,0009.93,0003.40,0001.91
2021-12-08 13:14:00,,0820.0,5.01,0.00,22.2,21.5,00.0,31.4,23.8,11.4,0000.0,0010.03,0003.44,0001.95
2021-12-08 13:15:00,,0820.0,4.99,0.00,22.3,22.1,00.0,31.4,24.0,11.2,0000.0,0010.06,0003.43,0001.95
2021-12-08 13:16:00,,0819.9,5.00,0.00,22.4,22.8,00.0,31.4,24.3,11.1,0000.0,0010.53,0003.44,0001.94
2021-12-08 13:17:00,,0819.9,5.01,0.00,22.5,23.0,00.0,31.4,24.5,11.2,0000.0,0010.56,0003.42,0001.94
2021-12-08 13:18:00,,0819.8,5.01,0.00,22.6,22.8,00.0,31.5,24.5,11.2,0000.0,0010.40,0003.40,0001.95
2021-12-08 13:19:00,,0819.7,4.99,0.00,22.6,22.6,00.0,31.5,24.4,11.2,0000.0,0010.09,0003.39,0001.98
2021-12-08 13:20:00,,0819.7,5.01,0.00,22.6,22.5,00.0,31.5,24.4,11.3,0000.0,0010.18,0003.44,0002.01
2021-12-08 13:21:00,,0819.7,4.99,0.00,22.6,22.4,00.0,31.5,24.4,11.2,0000.0,0009.89,0003.49,0002.05
2021-12-08 13:22:00,,0819.8,4.99,0.00,22.6,22.3,00.0,31.5,24.4,11.2,0000.0,0010.81,0003.47,0002.05
2021-12-08 13:23:00,,0819.8,5.01,0.00,22.6,22.2,00.0,31.5,24.4,11.1,0000.0,0011.08,0003.50,0002.04
2021-12-08 13:24:00,,0819.8,5.00,0.00,22.6,22.2,00.0,31.5,24.4,11.2,0000.0,0011.43,0003.49,0002.01
2021-12-08 13:25:00,,0819.7,5.01,0.00,22.6,22.1,00.0,31.5,24.4,11.2,0000.0,0011.32,0003.42,0001.96
2021-12-08 13:26:00,,0819.6,5.00,0.00,22.6,22.1,00.0,31.5,24.4,11.1,0000.0,0011.59,0003.39,0001.94
2021-12-08 13:27:00,,0819.4,4.99,0.00,22.6,22.0,00.0,31.5,24.4,11.2,0000.0,0011.40,0003.38,0001.95
2021-12-08 13:28:00,,0819.4,4.98,0.00,22.6,22.0,00.0,31.5,24.4,11.2,0000.0,0012.53,0003.45,0001.94
2021-12-08 13:29:00,,0819.2,5.01,0.00,22.6,22.0,00.0,31.5,24.4,11.2,0000.0,0012.28,0003.50,0001.92
2021-12-08 13:30:00,,0819.2,4.99,0.00,22.6,21.9,00.0,31.5,24.4,11.2,0000.0,0011.88,0003.47,0001.89
2021-12-08 13:31:00,,0819.2,5.00,0.00,22.6,21.9,00.0,31.5,24.4,11.2,0000.0,0012.10,0003.42,0001.84
2021-12-08 13:32:00,,0819.3,4.99,0.00,22.6,21.9,00.0,31.5,24.4,11.2,0000.0,0011.83,0003.38,0001.80
2021-12-08 13:33:00,,0819.3,5.01,0.00,22.6,21.9,00.0,31.5,24.4,11.1,0000.0,0011.18,0003.34,0001.76
2021-12-08 13:34:00,,0819.3,4.99,0.00,22.6,21.9,00.0,31.5,24.3,11.1,0000.0,0012.30,0003.30,0001.75
2021-12-08 13:35:00,,0819.3,5.00,0.00,22.6,21.9,00.0,31.5,24.3,11.1,0000.0,0011.55,0003.26,0001.74
2021-12-08 13:36:00,,0819.2,4.99,0.00,22.6,21.8,00.0,31.5,24.3,11.2,0000.0,0011.57,0003.27,0001.79
2021-12-08 13:37:00,,0819.3,5.01,0.00,22.6,21.8,00.0,31.5,24.3,11.2,0000.0,0011.31,0003.32,0001.83
2021-12-08 13:38:00,,0819.3,5.00,0.00,22.6,21.8,00.0,31.5,24.3,11.2,0000.0,0011.68,0003.35,0001.84
2021-12-08 13:39:00,,0819.3,5.00,0.00,22.5,21.8,00.0,31.5,24.3,11.2,0000.0,0011.14,0003.34,0001.88
2021-12-08 13:40:00,,0819.3,5.00,0.00,22.5,21.8,00.0,31.5,24.3,11.2,0000.0,0010.85,0003.31,0001.91
2021-12-08 13:41:00,,0819.3,4.99,0.00,22.5,21.8,00.0,31.5,24.3,11.2,0000.0,0011.41,0003.37,0001.97
2021-12-08 13:42:00,,0819.3,5.01,0.00,22.5,21.8,00.0,31.5,24.2,11.3,0000.0,0011.69,0003.47,0002.05
2021-12-08 13:43:00,,0819.3,4.99,0.00,22.5,21.8,00.0,31.5,24.2,11.4,0000.0,0011.94,0003.53,0002.12
2021-12-08 13:44:00,,0819.2,5.01,0.00,22.5,21.8,00.0,31.5,24.2,11.5,0000.0,0011.96,0003.66,0002.22
2021-12-08 13:45:00,,0819.2,4.99,0.00,22.5,21.8,00.0,31.5,24.2,11.5,0000.0,0010.89,0003.80,0002.33
2021-12-08 13:46:00,,0819.2,4.99,0.00,22.5,21.8,00.0,31.5,24.2,11.5,0000.0,0011.27,0003.94,0002.43
2021-12-08 13:47:00,,0819.2,5.01,0.00,22.5,21.8,00.0,31.5,24.2,11.5,0000.0,0011.52,0004.07,0002.47
2021-12-08 13:48:00,,0819.2,4.99,0.00,22.5,21.7,00.0,31.5,24.2,11.5,0000.0,0011.82,0004.11,0002.52
2021-12-08 13:49:00,,0819.2,5.01,0.00,22.5,21.7,00.0,31.5,24.2,11.5,0000.0,0011.82,0004.18,0002.61
2021-12-08 13:50:00,,0819.2,5.00,0.00,22.5,21.7,00.0,31.5,24.2,11.5,0000.0,0011.60,0004.26,0002.66
2021-12-08 13:51:00,,0819.2,5.01,0.00,22.4,21.7,00.0,31.5,24.2,11.6,0000.0,0012.97,0004.33,0002.70
2021-12-08 13:52:00,,0819.2,5.01,0.00,22.4,21.7,00.0,31.4,24.2,11.6,0000.0,0012.67,0004.36,0002.73
2021-12-08 13:53:00,,0819.2,4.99,0.00,22.4,21.7,00.0,31.4,24.2,11.6,0000.0,0012.65,0004.36,0002.76
2021-12-08 13:54:00,,0819.3,5.01,0.00,22.4,21.7,00.0,31.4,24.1,11.7,0000.0,0012.88,0004.41,0002.79
2021-12-08 13:55:00,,0819.3,4.99,0.00,22.4,21.6,00.0,31.4,24.1,11.7,0000.0,0013.05,0004.45,0002.80
2021-12-08 13:56:00,,0819.3,5.01,0.00,22.4,21.6,00.0,31.4,24.1,11.8,0000.0,0013.61,0004.48,0002.82
2021-12-08 13:57:00,,0819.3,4.99,0.00,22.4,21.6,00.0,31.4,24.1,11.8,0000.0,0014.19,0004.49,0002.83
2021-12-08 13:58:00,,0819.2,5.00,0.00,22.4,21.6,00.0,31.4,24.1,11.7,0000.0,0014.49,0004.50,0002.86
2021-12-08 13:59:00,,0819.2,5.01,0.00,22.4,21.6,00.0,31.4,24.1,11.8,0000.0,0014.83,0004.58,0002.89
